Stations météo

réclame
Mon MeteoGroup
Harsfjarden, Suède (2489): Température de l'air & dewpoint: 05.12.2017 07:00:00 - 11.12.2017 07:00:00 (CET)Harsfjarden, Suède (2489): Vitesse du vent & gusts: 05.12.2017 07:00:00 - 11.12.2017 07:00:00 (CET)Harsfjarden, Suède (2489): Direction du vent: 05.12.2017 07:00:00 - 11.12.2017 07:00:00 (CET)Harsfjarden, Suède (2489): reduced air pressure: 05.12.2017 07:00:00 - 11.12.2017 07:00:00 (CET)Harsfjarden, Suède (2489): visibility: 05.12.2017 07:00:00 - 11.12.2017 07:00:00 (CET)Harsfjarden, Suède (2489): Quantités de précipitations: 05.12.2017 07:00:00 - 11.12.2017 07:00:00 (CET)
Date & Time tt [°C] td [°C] ff [km/h] ff [knt] fx [km/h] fx [knt] dd ppp [hPa] vv [km] rr [mm]
11.12.2017 07:00:00 - - - - - - - - - -
11.12.2017 06:00:00 -1,6 -1,6 7 4 11 6 NNE 992,4 50 0,0
11.12.2017 05:00:00 -1,8 -1,8 4 2 7 4 N 992,2 30 0,0
11.12.2017 04:00:00 -1,5 -1,5 7 4 7 4 NNE 992,1 45 0,0
11.12.2017 03:00:00 -0,8 -0,8 4 2 7 4 NE 991,8 30 0,0
11.12.2017 02:00:00 -0,5 -0,6 0 0 7 4 N 991,8 35 0,0
11.12.2017 01:00:00 -0,4 -0,4 0 0 7 4 N 991,4 24 0,0
11.12.2017 00:00:00 1,1 1,1 4 2 18 10 SE 991,4 50 0,4
10.12.2017 23:00:00 -0,3 -0,4 4 2 4 2 N 991,3 12 0,0
10.12.2017 22:00:00 -0,2 -0,5 0 0 7 4 N 991,2 40 0,0
10.12.2017 21:00:00 0,8 0,2 4 2 22 12 WSW 990,9 50 0,0
10.12.2017 20:00:00 0,9 0,8 14 8 36 19 S 990,7 30 0,6
10.12.2017 19:00:00 1,8 0,3 18 10 25 14 SSW 990,4 20 0,1
10.12.2017 18:00:00 1,6 -0,7 7 4 18 10 SSW 990,2 45 0,0
10.12.2017 17:00:00 2,1 -0,9 11 6 22 12 SW 990,2 50 0,0
10.12.2017 16:00:00 1,5 -0,1 11 6 25 14 SSW 990,3 50 0,0
10.12.2017 15:00:00 1,3 -0,5 18 10 32 18 SW 990,4 13 0,0
10.12.2017 14:00:00 2,1 -0,7 11 6 25 14 SSW 990,4 45 0,0
10.12.2017 13:00:00 2,5 -0,4 14 8 22 12 SSW 990,3 45 0,0
10.12.2017 12:00:00 2,0 -0,4 11 6 25 14 SSW 990,3 45 0,0
10.12.2017 11:00:00 2,4 -0,2 14 8 22 12 SSW 990,7 45 0,0
10.12.2017 10:00:00 1,4 -0,4 11 6 22 12 SW 990,8 50 0,0
10.12.2017 09:00:00 2,1 0,2 14 8 22 12 SSW 990,9 45 0,0
10.12.2017 08:00:00 2,2 0,3 11 6 22 12 SW 990,6 45 0,0
10.12.2017 07:00:00 2,6 1,0 11 6 22 12 SSW 990,5 35 0,0
10.12.2017 06:00:00 2,6 1,1 14 8 22 12 SSW 990,5 40 0,0
10.12.2017 05:00:00 1,8 1,4 7 4 11 6 SW 990,5 40 0,0
10.12.2017 04:00:00 0,4 0,3 0 0 4 2 N 990,6 50 0,0
10.12.2017 03:00:00 - - - - - - - - - -
10.12.2017 02:00:00 1,0 0,6 7 4 14 8 SW 991,0 45 0,2
10.12.2017 01:00:00 1,2 0,6 7 4 14 8 SW 990,9 21 0,1
10.12.2017 00:00:00 0,3 -0,1 7 4 7 4 SW 990,8 40 0,0
09.12.2017 23:00:00 0,3 -0,3 4 2 7 4 W 990,3 45 0,0
09.12.2017 22:00:00 1,3 0,1 4 2 14 8 WSW 990,1 45 0,0
09.12.2017 21:00:00 3,0 1,2 7 4 22 12 WSW 989,9 45 0,0
09.12.2017 20:00:00 3,8 2,0 11 6 22 12 SSW 989,2 45 0,0
09.12.2017 19:00:00 4,3 2,2 14 8 22 12 SSW 989,1 45 0,0
09.12.2017 18:00:00 4,0 2,0 11 6 22 12 SSW 988,8 45 0,0
09.12.2017 17:00:00 4,1 2,1 14 8 25 14 SSW 988,5 45 0,0
09.12.2017 16:00:00 4,1 2,0 18 10 25 14 SSW 988,5 45 0,0
09.12.2017 15:00:00 4,2 2,1 18 10 29 16 SSW 988,1 40 0,0
09.12.2017 14:00:00 4,2 1,9 22 12 29 16 SSW 987,8 50 0,0
09.12.2017 13:00:00 4,2 1,7 18 10 29 16 SSW 987,8 45 0,0
09.12.2017 12:00:00 4,2 1,9 18 10 32 18 SW 987,7 45 0,0
09.12.2017 11:00:00 4,2 1,7 18 10 36 19 SW 987,5 45 0,0
09.12.2017 10:00:00 4,4 1,9 18 10 36 19 SW 987,5 45 0,0
09.12.2017 09:00:00 4,2 1,7 25 14 50 27 SW 987,0 40 0,0
09.12.2017 08:00:00 - - - - - - - - - -
09.12.2017 07:00:00 - - - - - - - - - -
09.12.2017 06:00:00 4,6 1,5 29 16 47 25 SSW 986,1 40 0,0
09.12.2017 05:00:00 4,7 1,6 29 16 47 25 SSW 986,1 45 0,0
09.12.2017 04:00:00 - - - - - - - - - -
09.12.2017 03:00:00 4,8 1,6 25 14 40 21 SSW 985,9 40 0,0
09.12.2017 02:00:00 4,6 1,4 22 12 43 23 SSW 985,6 35 0,0
09.12.2017 01:00:00 - - - - - - - - - -
09.12.2017 00:00:00 5,0 1,5 29 16 43 23 SSW 985,5 45 0,0
08.12.2017 23:00:00 - - - - - - - - - -
08.12.2017 22:00:00 4,9 1,6 29 16 43 23 SSW 985,3 40 0,0
08.12.2017 21:00:00 5,0 0,9 25 14 43 23 SSW 985,3 40 0,0
08.12.2017 20:00:00 - - - - - - - - - -
08.12.2017 19:00:00 5,3 0,7 25 14 40 21 SSW 984,9 35 0,0
08.12.2017 18:00:00 5,4 0,8 25 14 54 29 SSW 984,7 35 0,0
08.12.2017 17:00:00 5,5 0,9 29 16 54 29 SSW 984,6 35 0,0
08.12.2017 16:00:00 5,4 1,0 29 16 54 29 SSW 984,5 40 0,0
08.12.2017 15:00:00 5,3 1,0 29 16 43 23 SSW 984,4 40 0,0
08.12.2017 14:00:00 5,2 1,3 25 14 43 23 SSW 984,5 35 0,0
08.12.2017 13:00:00 5,2 1,3 22 12 43 23 SSW 984,3 40 0,0
08.12.2017 12:00:00 5,3 1,8 25 14 47 25 SSW 984,5 40 0,0
08.12.2017 11:00:00 5,3 1,8 25 14 47 25 SSW 984,5 45 0,0
08.12.2017 10:00:00 5,4 2,1 22 12 40 21 SSW 984,4 40 0,0
08.12.2017 09:00:00 5,2 2,4 22 12 40 21 SSW 984,5 30 0,0
08.12.2017 08:00:00 5,5 2,7 29 16 43 23 SSW 984,4 29 0,0
08.12.2017 07:00:00 5,7 3,0 25 14 40 21 SSW 984,6 30 0,0
08.12.2017 06:00:00 5,9 3,1 25 14 40 21 SSW 985,0 35 0,0
08.12.2017 05:00:00 5,2 3,9 18 10 29 16 SW 985,4 45 0,0
08.12.2017 04:00:00 5,3 4,0 14 8 29 16 SSW 985,6 50 0,0
08.12.2017 03:00:00 5,8 4,3 18 10 32 18 SSW 986,3 50 0,0
08.12.2017 02:00:00 5,8 4,4 22 12 32 18 SSW 986,9 50 0,0
08.12.2017 01:00:00 5,4 4,5 18 10 32 18 SSW 987,4 50 0,2
08.12.2017 00:00:00 5,8 4,1 22 12 36 19 SSW 988,0 30 0,1
07.12.2017 23:00:00 6,0 4,3 22 12 29 16 SSW 988,5 50 0,0
07.12.2017 22:00:00 6,0 4,3 18 10 36 19 SSW 989,2 45 0,0
07.12.2017 21:00:00 5,9 4,5 22 12 36 19 SW 989,9 50 0,0
07.12.2017 20:00:00 6,0 4,6 22 12 36 19 SSW 990,4 45 0,0
07.12.2017 19:00:00 6,2 5,5 22 12 40 21 SSW 991,1 45 0,1
07.12.2017 18:00:00 6,6 5,5 22 12 36 19 SSW 991,7 45 0,0
07.12.2017 17:00:00 6,5 6,1 18 10 25 14 SW 992,8 45 0,4
07.12.2017 16:00:00 6,8 6,4 18 10 25 14 SSW 993,5 30 0,2
07.12.2017 15:00:00 6,6 6,3 11 6 22 12 SSW 994,3 21 0,1
07.12.2017 14:00:00 6,4 6,3 14 8 18 10 S 994,9 40 0,0
07.12.2017 13:00:00 6,7 6,6 14 8 25 14 SSW 995,8 40 0,0
07.12.2017 12:00:00 6,5 6,5 14 8 22 12 SSW 996,6 30 0,0
07.12.2017 11:00:00 6,3 6,3 11 6 22 12 SW 997,5 14 0,8
07.12.2017 10:00:00 6,1 6,1 14 8 22 12 SW 998,3 4,7 0,6
07.12.2017 09:00:00 5,5 5,5 11 6 18 10 SSW 998,8 3,3 0,3
07.12.2017 08:00:00 4,8 4,8 7 4 14 8 SSW 999,4 6 0,2
07.12.2017 07:00:00 4,8 4,8 7 4 11 6 S 999,9 2,3 0,1
07.12.2017 06:00:00 3,8 3,8 7 4 22 12 ESE 1000,8 4,4 0,2
07.12.2017 05:00:00 2,9 2,8 11 6 22 12 SE 1002,0 2,5 0,5
07.12.2017 04:00:00 2,3 2,0 14 8 25 14 SE 1003,1 8 0,4
07.12.2017 03:00:00 1,0 1,0 14 8 18 10 SE 1004,1 8 0,9
07.12.2017 02:00:00 0,7 0,6 11 6 14 8 SE 1005,1 7 1,0
07.12.2017 01:00:00 1,0 0,6 11 6 14 8 SSE 1005,7 6 0,6
07.12.2017 00:00:00 -1,6 -2,2 0 0 4 2 N 1006,6 35 0,0
06.12.2017 23:00:00 -2,0 -2,6 0 0 4 2 N 1007,3 45 0,0
06.12.2017 22:00:00 -2,1 -2,8 4 2 4 2 N 1007,8 50 0,0
06.12.2017 21:00:00 -2,5 -3,0 0 0 4 2 N 1008,3 50 0,0
06.12.2017 20:00:00 -2,4 -3,1 0 0 4 2 N 1008,6 50 0,0
06.12.2017 19:00:00 -2,3 -3,1 0 0 4 2 N 1008,7 50 0,0
06.12.2017 18:00:00 -2,3 -3,0 4 2 4 2 W 1009,1 50 0,0
06.12.2017 17:00:00 -2,9 -3,6 0 0 4 2 N 1009,2 50 0,0
06.12.2017 16:00:00 -3,2 -3,9 0 0 7 4 N 1008,8 50 0,0
06.12.2017 15:00:00 -2,4 -3,8 4 2 11 6 WNW 1008,8 50 0,0
06.12.2017 14:00:00 -1,6 -3,5 4 2 11 6 WNW 1008,6 50 0,0
06.12.2017 13:00:00 -0,8 -3,3 4 2 11 6 NW 1009,0 45 0,0
06.12.2017 12:00:00 -0,6 -3,1 7 4 14 8 NW 1009,0 45 0,0
06.12.2017 11:00:00 -1,2 -3,6 7 4 14 8 NW 1008,8 45 0,0
06.12.2017 10:00:00 -1,7 -3,7 7 4 14 8 WNW 1009,1 50 0,0
06.12.2017 09:00:00 -2,0 -3,9 7 4 14 8 WNW 1008,9 50 0,0
06.12.2017 08:00:00 -1,9 -3,8 7 4 18 10 WNW 1008,8 50 0,0
06.12.2017 07:00:00 -1,7 -3,6 11 6 18 10 WNW 1008,5 50 0,0
06.12.2017 06:00:00 -2,1 -3,7 11 6 18 10 WNW 1008,4 50 0,0
06.12.2017 05:00:00 -1,8 -3,7 7 4 18 10 NW 1008,6 50 0,0
06.12.2017 04:00:00 -2,0 -3,6 7 4 14 8 W 1008,7 50 0,0
06.12.2017 03:00:00 -1,7 -3,4 11 6 18 10 WNW 1009,1 50 0,0
06.12.2017 02:00:00 -2,0 -3,4 11 6 18 10 WNW 1009,1 50 0,0
06.12.2017 01:00:00 -2,0 -3,6 7 4 18 10 WNW 1008,9 50 0,0
06.12.2017 00:00:00 -1,3 -3,2 7 4 14 8 WNW 1008,7 50 0,0
05.12.2017 23:00:00 -1,5 -3,2 7 4 22 12 WNW 1008,3 50 0,0
05.12.2017 22:00:00 -1,2 -2,9 7 4 18 10 NW 1007,8 50 0,0
05.12.2017 21:00:00 -1,2 -2,8 7 4 14 8 NW 1007,2 50 0,0
05.12.2017 20:00:00 -0,9 -2,5 7 4 18 10 NW 1006,8 50 0,0
05.12.2017 19:00:00 -0,3 -2,0 7 4 18 10 NW 1006,0 45 0,0
05.12.2017 18:00:00 0,9 -0,9 11 6 29 16 NNW 1005,0 50 0,0
05.12.2017 17:00:00 1,6 1,0 11 6 18 10 WNW 1003,9 45 0,0
05.12.2017 16:00:00 1,7 1,3 7 4 18 10 W 1003,6 45 0,0
05.12.2017 15:00:00 1,6 1,0 7 4 14 8 WSW 1004,1 30 0,0
05.12.2017 14:00:00 1,7 0,8 11 6 18 10 WSW 1004,9 45 0,0
05.12.2017 13:00:00 1,4 0,5 11 6 18 10 WSW 1005,6 45 0,0
05.12.2017 12:00:00 1,2 -0,4 11 6 18 10 SW 1006,4 45 0,0
05.12.2017 11:00:00 -0,6 -2,0 11 6 14 8 WSW 1008,1 50 0,0
05.12.2017 10:00:00 -2,0 -3,6 7 4 14 8 W 1009,3 50 0,0
05.12.2017 09:00:00 -2,8 -4,4 7 4 14 8 W 1009,9 50 0,0
05.12.2017 08:00:00 -3,3 -4,9 7 4 18 10 W 1010,6 50 0,0
05.12.2017 07:00:00 -3,2 -4,8 11 6 18 10 W 1011,2 50 0,0

tt = Température de l'air
td = dewpoint
ff = Vitesse du vent
fx = gusts
dd = Direction du vent
ppp = reduced air pressure
vv = visibility
rr = Quantités de précipitations

stations d'obs. à proximité